Regional Weather Roundup
Issued by NWS

Home | Current Version | Previous Version | Text Only | Print | Product List | Glossary Off
Versions: 1 2 3 4 5 6 7 8 9 10 11 12 13 14 15 16 17 18 19 20 21 22 23 24 25 26

000
ASUS45 KCYS 270910
RWRWY

WYOMING REGIONAL WEATHER ROUNDUP
NATIONAL WEATHER SERVICE CHEYENNE WY
300 AM MDT FRI MAY 27 2016

NOTE:  "FAIR" INDICATES FEW OR NO CLOUDS BELOW 12,000 FEET
WITH NO SIGNIFICANT WEATHER AND/OR OBSTRUCTIONS TO VISIBILITY.

WYZ001-271000-
YELLOWSTONE NATIONAL PARK

CITY           SKY/WX    TMP DP  RH WIND       PRES   REMARKS
LK YELLOWSTONE   N/A     31  30  96 CALM      30.07F
W YELLOWSTONE  NOT AVBL

$$
WYZ002>013-054>058-071-098>099-271000-
NORTHERN WYOMING

CITY           SKY/WX    TMP DP  RH WIND       PRES   REMARKS
JACKSON        MOCLDY    41  39  93 NW3       30.02R
CODY           FAIR      43  37  81 S5        29.94F
GREYBULL       FAIR      46  42  86 SE3       29.92S
WORLAND        FAIR      42  40  92 SE3       29.93S
SHERIDAN       FAIR      44  40  85 W5        29.91F
BUFFALO        FAIR      45  38  76 W8        29.93F
GILLETTE       CLOUDY    47  43  86 CALM      29.90F
HULETT         CLOUDY    48  43  81 CALM      29.91S
NEWCASTLE      FAIR      46  34  61 CALM      29.90F

$$
WYZ014>020-022>026-101>103-271000-
CENTRAL WYOMING

CITY           SKY/WX    TMP DP  RH WIND       PRES   REMARKS
BIG PINEY      CLOUDY    38  35  89 CALM      30.04S
PINEDALE       FAIR      36  32  87 S3        30.05S
DUBOIS         FAIR      34  28  80 NW6       30.02S WCI  29
LANDER         FAIR      43  37  79 SE3       29.96F
RIVERTON       FAIR      46  38  73 W5        29.97F
CASPER         CLOUDY    41  38  89 NW7       29.95F
DOUGLAS          N/A    N/A N/A N/A MISG      29.94S

$$
WYZ021-027>030-104>119-271000-
SOUTHERN WYOMING

CITY           SKY/WX    TMP DP  RH WIND       PRES   REMARKS
EVANSTON       FAIR      39  34  82 SW8       30.04F WCI  33
KEMMERER         N/A     41  34  75 CALM      30.04F
FORT BRIDGER   SUNNY     41  39  93 W6        30.06F
ROCK SPRINGS   CLOUDY    43  39  86 E7        30.02S
DIXON          FAIR      38  36  92 NE3       30.01S
RAWLINS        FAIR      38  33  82 NW7       29.99S WCI  33
SARATOGA       FAIR      36  34  93 W6        29.98F WCI  31
LARAMIE        MOCLDY    38  36  92 CALM      29.96S
CHEYENNE       CLOUDY    47  39  74 N15G24    29.91R
TORRINGTON     FAIR      49  41  74 N9        29.85F
PINE BLUFFS    FAIR      45  43  93 NW14      29.86F

$$




USA.gov is the U.S. government's official web portal to all federal, state and local government web resources and services.